Location: Gebenbach
(49.5378°N, 11.8735°E)
Time: 03:18:34
(UTC+00:00)

Meteor 2-8 Rocket - Pass Details

Date: 29 October 2020
Orbit: 937 x 957 km, 82.5° (Epoch: 24 November)

Event Time Altitude Azimuth Distance (km) Brightness Sun altitude
Rises 17:12:37 0° 184° (S) 3,604 7.6 -13.1°
Reaches altitude 10° 17:15:05 10° 184° (S) 2,666 6.9 -13.5°
Maximum altitude 17:21:11 82° 98° (E) 969 4.4 -14.5°
Drops below altitude 10° 17:27:22 10° 12° (NNE) 2,697 6.7 -15.5°
Sets 17:29:53 0° 11° (NNE) 3,648 7.4 -15.9°
